Regional Weather Roundup
Issued by NWS

Home | Current Version | Previous Version | Text Only | Print | Product List | Glossary On
Versions: 1 2 3 4 5 6 7 8 9 10 11 12 13 14 15 16 17 18 19 20 21 22 23 24 25 26 27 28 29 30 31 32 33 34 35 36 37 38 39 40 41 42 43 44 45 46 47 48 49 50
000
ASUS43 KMKX 281221
RWRWI

WISCONSIN REGIONAL WEATHER ROUNDUP
NATIONAL WEATHER SERVICE MILWAUKEE/SULLIVAN WI
700 AM CDT FRI AUG 28 2015

NOTE: "FAIR" INDICATES FEW OR NO CLOUDS BELOW 12,000 FEET WITH NO
SIGNIFICANT WEATHER AND/OR OBSTRUCTIONS TO VISIBILITY.

WIZ001-002-006>008-014>016-023>028-281300-
NORTHWEST WISCONSIN

CITY           SKY/WX    TMP DP  RH WIND       PRES   REMARKS
SUPERIOR ARPT  CLOUDY    56  54  91 N3        29.98S
6HR MIN TEMP:  49; 6HR MAX TEMP:  56;

ASHLAND        CLOUDY    63  61  93 S8        30.00R
6HR MIN TEMP:  56; 6HR MAX TEMP:  64;

HAYWARD        CLEAR     59  57  93 S3        30.02S
6HR MIN TEMP:  59; 6HR MAX TEMP:  63;

SIREN          PTCLDY    61  59  94 S6        30.00R
6HR MIN TEMP:  60; 6HR MAX TEMP:  64;

CUMBERLAND     PTCLDY    54  54 100 S5        30.03R FOG
RICE LAKE      PTCLDY    57  55  94 CALM      30.05R
6HR MIN TEMP:  56; 6HR MAX TEMP:  59;

CHETEK         PTCLDY   N/A N/A N/A SE3       30.04R
LADYSMITH      PTCLDY    59  58  94 SE3       30.06R
6HR MIN TEMP:  59; 6HR MAX TEMP:  61;

EAU CLAIRE     CLOUDY    61  58  90 S3        30.03R
6HR MIN TEMP:  60; 6HR MAX TEMP:  64;

MENOMONIE      CLOUDY    60  59  96 CALM      30.04R
6HR MIN TEMP:  59; 6HR MAX TEMP:  62;

NEW RICHMOND   CLOUDY    59  59  99 CALM      30.02S
6HR MIN TEMP:  58; 6HR MAX TEMP:  62;

OSCEOLA        MOCLDY    58  58 100 CALM      30.04S
6HR MIN TEMP:  57; 6HR MAX TEMP:  61;

$$

WIZ003>005-009-010-017-018-281300-
NORTH CENTRAL WISCONSIN

CITY           SKY/WX    TMP DP  RH WIND       PRES   REMARKS
MANITOWISH WTR CLOUDY    59  59 100 S7        30.05R
6HR MIN TEMP:  58; 6HR MAX TEMP:  60;

ARBOR VITAE    PTCLDY    60  58  92 S6        30.06S
6HR MIN TEMP:  59; 6HR MAX TEMP:  62;

WOODRUFF       PTCLDY    60  58  92 S6        30.06S
6HR MIN TEMP:  59; 6HR MAX TEMP:  62;

RHINELANDER    MOCLDY    60  57  89 SW9       30.08S
6HR MIN TEMP:  56; 6HR MAX TEMP:  62;

EAGLE RIVER    PTCLDY    58  57  96 CALM      30.06S
6HR MIN TEMP:  54; 6HR MAX TEMP:  59;

LAND O LAKES   PTCLDY    57  56  97 CALM      30.07S
6HR MIN TEMP:  55; 6HR MAX TEMP:  60; 6HR PCP:  0.01;

PHILLIPS       PTCLDY    58  57  97 S5        30.04S
6HR MIN TEMP:  57; 6HR MAX TEMP:  60;

TOMAHAWK       MOCLDY    56  55  96 CALM      30.08S
6HR MIN TEMP:  55; 6HR MAX TEMP:  59;

MEDFORD        MOCLDY    56  56  98 S6        30.07R
6HR MIN TEMP:  56; 6HR MAX TEMP:  61;

MERRILL        PTCLDY    58  58  99 CALM      30.09R
6HR MIN TEMP:  51; 6HR MAX TEMP:  60;

$$

WIZ029-030-035-036-043>047-281300-
CENTRAL WISCONSIN

CITY           SKY/WX    TMP DP  RH WIND       PRES   REMARKS
WAUSAU         MOCLDY    60  58  92 S6        30.07S
6HR MIN TEMP:  59; 6HR MAX TEMP:  63;

MOSINEE        PTCLDY    55  55 100 S5        30.10R
MARSHFIELD     MOCLDY    57  54  89 S3        30.08R FOG
6HR MIN TEMP:  56; 6HR MAX TEMP:  61;

STEVENS POINT  MOCLDY    56  55  95 S3        30.10S
6HR MIN TEMP:  56; 6HR MAX TEMP:  59;

WAUPACA        MOCLDY    58  58  97 CALM      30.11R
6HR MIN TEMP:  58; 6HR MAX TEMP:  61;

WAUTOMA        MOCLDY    55  55 100 CALM      30.11S
6HR MIN TEMP:  53; 6HR MAX TEMP:  57;

WISC RAPIDS    MOCLDY    59  56  89 S6        30.10S
6HR MIN TEMP:  58; 6HR MAX TEMP:  63; 6HR PCP: TRACE;

CAMP DOUGLAS   CLOUDY    59  59 100 SE2       30.07S
$$

WIZ011>013-019>022-031-037>040-048>050-281300-
NORTHEAST WISCONSIN

CITY           SKY/WX    TMP DP  RH WIND       PRES   REMARKS
ANTIGO         MOCLDY    56  55  97 CALM      30.10S
SHAWANO        MOCLDY    60  57  92 CALM      30.11R
6HR MIN TEMP:  59; 6HR MAX TEMP:  61;

OCONTO         CLOUDY    57  57 100 CALM      30.11R
6HR MIN TEMP:  54; 6HR MAX TEMP:  59;

STURGEON BAY   CLOUDY    57  52  82 S8        30.14S
6HR MIN TEMP:  55; 6HR MAX TEMP:  59;

GREEN BAY      MOCLDY    55  53  93 S5        30.12R FOG
6HR MIN TEMP:  55; 6HR MAX TEMP:  59;

MANITOWOC      PTCLDY    52  50  93 MISG      30.14R
6HR MIN TEMP:  51; 6HR MAX TEMP:  61;

APPLETON       MOCLDY    55  50  82 VRB5      30.10S
CLINTONVILLE   MOCLDY    57  55  94 CALM      30.11R
OSHKOSH        PTCLDY    54  52  93 S7        30.12R
6HR MIN TEMP:  54; 6HR MAX TEMP:  60;

$$

WIZ032>034-041-042-053>061-281300-
SOUTHWEST WISCONSIN

CITY           SKY/WX    TMP DP  RH WIND       PRES   REMARKS
LA CROSSE      CLOUDY    65  60  84 S10       30.05R
6HR MIN TEMP:  64; 6HR MAX TEMP:  67;

SPARTA         CLOUDY    59  57  91 CALM      30.07S
6HR MIN TEMP:  56; 6HR MAX TEMP:  62;

VIROQUA        CLOUDY    60  60 100 S5        30.09R
6HR MIN TEMP:  60; 6HR MAX TEMP:  62;

BOSCOBEL       CLOUDY    60  58  92 CALM      30.09S FOG
6HR MIN TEMP:  58; 6HR MAX TEMP:  61;

PRAIRIE DU CHI CLOUDY    63  57  81 CALM      30.09R
6HR MIN TEMP:  63; 6HR MAX TEMP:  65;

PLATTEVILLE    CLOUDY    60  59  96 SE5       30.11R
6HR MIN TEMP:  60; 6HR MAX TEMP:  63;

$$

WIZ056-057-062-063-064-067-068-281300-
SOUTH CENTRAL WISCONSIN

CITY           SKY/WX    TMP DP  RH WIND       PRES   REMARKS
REEDSBURG      MOCLDY    58  56  96 CALM      30.09S
6HR MIN TEMP:  57; 6HR MAX TEMP:  59;

BARABOO/DELLS  MOCLDY    59  56  91 S5        30.10S
6HR MIN TEMP:  56; 6HR MAX TEMP:  60;

LONE ROCK      CLOUDY    59  57  93 CALM      30.10S FOG
6HR MIN TEMP:  56; 6HR MAX TEMP:  59;

MINERAL POINT  CLOUDY    61  59  94 SE5       30.12R FOG
MADISON        CLOUDY    60  55  83 S5        30.12R
6HR MIN TEMP:  59; 6HR MAX TEMP:  62;

MIDDLETON      MOCLDY    58  57  95 CALM      30.12R
6HR MIN TEMP:  56; 6HR MAX TEMP:  63;

WATERTOWN      CLEAR     52  52 100 CALM      30.13R FOG
6HR MIN TEMP:  51; 6HR MAX TEMP:  58;

MONROE         CLOUDY    59  55  88 S6        30.12R
JANESVILLE     MOCLDY    59  57  94 CALM      30.12R FOG
$$

WIZ051-052-058>065-066-070>072-281300-
SOUTHEAST WISCONSIN

CITY           SKY/WX    TMP DP  RH WIND       PRES   REMARKS
MILWAUKEE      MOCLDY    60  56  86 SW3       30.15R FOG
6HR MIN TEMP:  56; 6HR MAX TEMP:  60;

WAUKESHA       CLEAR     54  54 100 CALM      30.15R FOG
MILWAUKEE/TIMM CLEAR     54  52  94 CALM      30.15R FOG
RACINE         PTCLDY    59  56  89 CALM      30.15R
6HR MIN TEMP:  58; 6HR MAX TEMP:  61;

BURLINGTON     MOCLDY    52  51  99 CALM      30.13S FOG
6HR MIN TEMP:  47; 6HR MAX TEMP:  52;

KENOSHA        PTCLDY    57  56  96 CALM      30.14R FOG
6HR MIN TEMP:  52; 6HR MAX TEMP:  57;

FOND DU LAC    PTCLDY    54  52  93 S5        30.13S
6HR MIN TEMP:  52; 6HR MAX TEMP:  59;

SHEBOYGAN      MOCLDY    54  53  97 CALM      30.14R FOG
6HR MIN TEMP:  51; 6HR MAX TEMP:  56;

WEST BEND      PTCLDY    52  50  93 CALM      30.15R FOG
JUNEAU         PTCLDY    53  51  94 SE5       30.14S FOG
6HR MIN TEMP:  53; 6HR MAX TEMP:  57;

$$

LSZ147-162-281300-
LAKE SUPERIOR

STATION/POSITION TIME  TEMP    WIND        PRES    WAVE
                       AIR SEA DIR/SP/G            HT/PER
                 (UTC) (F)     (DEG/KT/KT) (MB)    (FT/S)
W MID LAKE BUOY  1150   58 55  200/ 10/ 12 1014.9F   0
DEVILS ISLAND    1200   62     180/  7/  8 1015.2R
PORT WING        1100   57     150/  1/  3 1015.2
SAXON HARBOR     1140   63      CALM  /  3 1015.2R
$$

LMZ867-665-643>646-281300-
LAKE MICHIGAN

STATION/POSITION TIME  TEMP    WIND        PRES    WAVE
                       AIR SEA DIR/SP/G            HT/PER
                 (UTC) (F)     (DEG/KT/KT) (MB)    (FT/S)
CHAMBERS ISLAND  1100   60     180/  5/  7 1019.0R


USA.gov is the U.S. government's official web portal to all federal, state and local government web resources and services.